Location: Newark
(37.3394°N, 6.0261°W)
Time: 22:31:15
(UTC+00:00)

ISS - Visible Passes

Search period start: 17 October 2019 00:00
Search period end: 27 October 2019 00:00
Orbit: 411 x 421 km, 51.6° (Epoch: 17 October)

Date Brightness Start Highest point End Pass type
(mag) Time Alt. Az. Time Alt. Az. Time Alt. Az.
23 Oct -1.2 05:33:10 10° S 05:35:50 22° SE 05:38:31 10° ENE visible
24 Oct -0.7 04:46:01 10° SSE 04:47:27 12° SE 04:48:52 10° ESE visible
25 Oct -3.6 05:32:32 15° SW 05:35:13 72° SE 05:38:35 10° NE visible
26 Oct -2.4 04:46:48 37° SE 04:46:48 37° SE 04:49:51 10° ENE visible
